Regional Weather Roundup
Issued by NWS Sioux Falls, SD

Home | Current Version | Previous Version | Text Only | Print | Product List | Glossary On
Versions: 1 2 3 4 5 6 7 8 9 10 11 12 13 14 15 16 17 18 19 20 21 22 23 24 25 26 27 28 29 30 31 32 33 34 35 36 37 38 39 40 41 42 43 44 45 46 47 48 49 50
000
ASUS43 KFSD 071810
RWRFSD

WEATHER ROUNDUP FOR SE SOUTH DAKOTA/SW MINNESOTA/NW IOWA
NATIONAL WEATHER SERVICE SIOUX FALLS SD
100 PM CDT TUE JUL 07 2015

NOTE: "FAIR" INDICATES FEW OR NO CLOUDS BELOW 12,000 FEET WITH NO
SIGNIFICANT WEATHER AND OR OBSTRUCTIONS TO VISIBILITY.


SDZ038>040-050-052>070-071900-
SOUTHEAST SOUTH DAKOTA

CITY           SKY/WX    TMP DP  RH WIND       PRES   REMARKS
BROOKINGS      MOSUNNY   63  45  51 SE8       30.22F
CHAMBERLAIN    SUNNY     67  55  64 SE8       30.18F
6HR MIN TEMP:  54; 6HR MAX TEMP:  67;

HURON          SUNNY     67  46  47 SE8       30.18F
6HR MIN TEMP:  54; 6HR MAX TEMP:  67;

MADISON        FAIR      63  48  59 E7        30.21F
MITCHELL       SUNNY     68  51  54 E8        30.20F
6HR MIN TEMP:  54; 6HR MAX TEMP:  69;

SIOUX FALLS    PTSUNNY   66  49  54 VRB7      30.21S
6HR MIN TEMP:  53; 6HR MAX TEMP:  66;

WINNER         FAIR      71  56  58 SE13      30.17F
YANKTON        MOSUNNY   64  48  55 N5        30.18F
$$

MNZ071-072-080-081-089-090-097-098-071900-
SOUTHWEST MINNESOTA

CITY           SKY/WX    TMP DP  RH WIND       PRES   REMARKS
FAIRMONT       PTSUNNY   63  45  51 NE7       30.17F
JACKSON        MOSUNNY   64  50  59 NE10G21   30.19F
LUVERNE        MOSUNNY   66  45  45 E6        30.21S
MARSHALL       PTSUNNY   63  45  51 N8        30.19F
6HR MIN TEMP:  50; 6HR MAX TEMP:  64;

MONTEVIDEO     MOSUNNY   70  50  49 E9        30.21F
PIPESTONE      MOSUNNY   63  45  51 E3        30.21S
REDWOOD FALLS  PTSUNNY   66  46  48 N8        30.19S
TRACY          MOSUNNY   65  49  54 NE9       30.21S
WINDOM         MOSUNNY   64  46  52 N10       30.19S
WORTHINGTON    MOSUNNY   63  46  55 N8        30.20S
$$

IAZ001>003-012>014-020>022-031-032-NEZ013-014-SDZ071-071900-
NORTHWEST IOWA

CITY           SKY/WX    TMP DP  RH WIND       PRES   REMARKS
CHEROKEE       SUNNY     65  51  58 N5        30.17F
DENISON        SUNNY     64  50  59 NE13      30.14S
ESTHERVILLE    PTSUNNY   63  48  58 N13       30.17F
LE MARS        PTSUNNY   64  48  55 N8        30.20S
ORANGE CITY    MOSUNNY   63  48  59 N6        30.19F
SHELDON        SUNNY     64  48  55 N9        30.18F
SIOUX CITY     SUNNY     69  49  48 N10       30.17F
6HR MIN TEMP:  55; 6HR MAX TEMP:  69;

SPENCER        SUNNY     67  45  45 N13       30.18F
6HR MIN TEMP:  50; 6HR MAX TEMP:  67;

STORM LAKE     SUNNY     64  50  59 N15       30.17F
$$

ABBREVIATIONS USED IN REMARKS
   TC - TEMPERATURE IN CELSIUS
  WCI - WIND CHILL INDEX
   HX - HEAT INDEX
  VSB - VISIBILITY




USA.gov is the U.S. government's official web portal to all federal, state and local government web resources and services.